Theta_e
302 302 301 302 303 303 302 303 303 303 304 301 301 301 301 295 300 303 301 300 301 300 294 292 292 292 293 297 302 307 304 304 302 303 303 303 300 301 301 302 304 305 306 306 306
302 301 301 301 300 301 301 301 302 302 301 301 301 301 299 294 294 300 299 300 299 295 292 291 291 292 293 294 296 302 303 302 302 299 298 297 297 297 297 298 299 299 301 302 304
301 301 302 301 301 302 302 302 301 300 300 301 300 300 299 293 294 299 297 297 296 292 291 291 292 292 295 296 297 296 296 294 296 296 297 296 294 294 295 296 297 297 297 297 298
300 302 300 300 300 300 300 300 299 299 298 299 299 300 296 293 294 296 295 293 292 292 292 292 291 294 294 294 295 294 294 295 295 294 294 294 293 293 293 293 293 294 295 295 295
297 299 299 299 299 299 298 296 295 294 294 295 298 296 294 293 293 294 292 291 291 292 292 292 292 294 293 294 294 293 293 293 293 293 293 293 292 292 292 292 293 293 292 293 293
298 299 299 299 298 298 297 296 294 294 294 294 294 295 294 293 293 292 292 291 292 292 292 292 292 293 293 293 292 293 293 292 293 292 292 292 292 292 293 294 293 293 293 293 294
300 298 299 298 298 298 297 296 294 295 294 295 293 296 295 293 293 292 292 291 292 292 293 293 293 293 293 292 293 293 292 292 292 292 292 293 292 292 293 294 293 293 293 293 293
299 298 297 298 298 297 297 296 295 294 294 294 293 294 294 292 293 292 291 291 292 292 293 293 293 292 292 293 293 292 291 292 292 292 292 292 293 293 294 293 293 293 293 293 293
298 298 299 299 297 297 297 296 296 294 294 293 293 293 293 292 292 291 291 292 292 293 292 292 293 293 292 292 291 292 292 292 293 293 292 292 293 294 294 294 294 294 294 294 293
296 298 300 300 300 297 296 295 296 294 294 293 293 292 293 292 292 291 291 292 292 292 292 293 293 292 291 290 290 292 292 293 293 292 293 293 293 294 294 295 295 295 295 294 294
297 296 298 299 299 295 295 294 293 294 294 292 292 291 292 292 292 291 291 292 292 292 291 292 291 291 290 292 292 292 292 292 292 293 293 293 293 294 294 293 293 294 295 295 295
298 297 297 298 297 296 294 291 290 292 292 292 292 291 292 292 291 291 291 292 292 291 291 289 290 291 291 292 293 293 294 293 293 293 293 293 292 292 292 293 293 293 293 293 294
299 298 298 298 297 297 293 291 290 292 291 292 292 292 292 291 290 290 291 292 291 290 290 287 289 291 292 292 293 294 294 293 293 293 292 291 292 293 292 291 290 290 290 290 291
299 299 299 298 298 298 293 291 291 293 283 293 291 292 291 291 290 290 291 292 291 288 290 287 290 293 293 292 293 292 292 293 293 291 290 292 292 292 292 291 290 289 289 289 289
299 299 300 299 298 298 293 291 293 292 292 291 291 291 290 290 290 291 292 291 290 289 286 288 289 290 290 291 293 290 292 292 291 290 291 290 292 291 290 290 289 289 289 288 288
300 301 300 300 299 298 295 291 293 289 290 292 290 291 291 290 290 291 291 291 289 287 288 290 291 289 290 292 291 291 287 289 283 284 288 290 293 292 291 290 289 288 287 287 287
301 301 301 299 299 297 293 292 291 292 293 294 291 291 291 291 291 288 286 283 284 283 280 288 289 292 292 284 284 282 281 280 282 280 285 291 291 291 289 288 287 287 286 286 286
301 300 299 299 299 295 292 290 290 292 292 291 291 291 291 291 291 286 283 283 284 278 288 282 285 288 291 289 286 281 282 285 289 283 290 291 287 291 288 288 287 286 285 285 284
299 298 298 299 298 294 292 290 294 293 293 291 292 290 288 290 290 286 280 282 285 281 285 277 285 290 290 291 287 282 287 289 292 274 282 287 289 289 290 288 286 285 284 284 284
297 297 298 298 296 293 292 296 292 292 292 291 292 292 291 286 288 287 285 286 287 287 284 283 284 289 290 287 286 288 291 289 286 287 285 285 287 289 287 286 285 283 284 283 283
297 297 298 296 295 292 293 288 290 292 291 291 291 292 291 288 287 288 288 288 289 290 288 278 282 284 285 279 281 283 287 293 294 289 289 288 287 282 284 285 284 283 283 283 282
296 297 297 296 293 292 286 288 291 293 293 291 292 292 291 286 289 287 288 289 289 290 289 286 279 280 282 285 282 284 288 294 292 288 288 291 289 282 284 284 284 283 282 282 282
295 295 295 294 295 286 289 292 292 293 294 290 292 292 289 290 290 286 289 289 289 290 288 286 282 282 283 282 282 284 285 291 292 291 289 291 288 283 284 284 283 282 282 281 281
295 294 294 292 293 292 293 293 293 292 291 293 292 292 292 289 286 287 289 290 289 290 290 289 287 286 285 282 277 286 286 288 289 289 285 289 286 287 286 283 282 282 281 281 280
293 292 294 290 291 290 291 293 293 292 292 292 292 293 293 291 291 288 289 288 289 290 291 290 290 278 284 281 278 285 284 285 287 288 289 285 284 288 283 282 281 281 280 280 279
291 293 292 292 292 293 292 291 292 292 291 292 292 291 290 292 292 291 290 290 291 288 289 287 288 279 280 281 269 277 281 283 285 287 288 286 287 282 280 282 281 280 280 279 279
291 291 291 291 290 290 290 290 290 291 291 291 291 291 290 289 290 290 290 290 291 290 288 287 288 284 280 277 276 282 280 281 282 282 286 286 286 282 280 280 280 279 279 278 278
Wind_Speed
23 23 23 24 24 24 24 22 23 21 22 22 22 20 20 13 6 1 4 5 5 11 15 15 13 11 7 6 6 5 3 11 7 6 15 18 11 14 19 26 19 14 31 33 35
19 22 23 24 23 23 22 23 23 22 21 22 23 21 17 12 8 4 2 3 6 13 16 19 17 10 1 3 4 4 5 8 5 5 10 23 16 22 16 27 31 32 40 42 45
20 23 22 24 25 24 23 23 22 23 23 23 21 19 13 13 7 4 2 4 9 16 17 12 7 3 3 3 3 3 6 4 19 18 20 24 29 24 17 26 24 31 38 44 50
22 24 26 25 26 26 25 23 23 24 23 22 21 12 12 9 5 4 4 9 14 14 11 11 8 3 1 2 3 4 11 10 19 23 22 18 29 22 28 33 32 36 38 43 40
26 25 26 27 28 28 27 23 24 26 25 22 12 12 15 5 6 4 6 13 12 12 12 14 9 4 4 3 5 5 12 20 27 29 23 25 25 29 34 43 46 41 40 42 45
27 26 27 27 28 27 25 23 26 25 21 13 10 16 9 2 6 3 10 15 13 13 13 10 5 5 8 7 6 7 9 19 25 33 23 23 26 30 43 47 47 43 42 44 45
26 27 28 28 28 27 25 25 28 26 12 18 14 10 6 4 4 9 15 18 15 12 13 12 12 9 3 5 18 15 11 15 22 28 15 13 13 19 45 49 38 37 33 37 41
24 26 27 28 29 28 25 26 27 24 11 14 4 3 4 5 8 13 15 17 11 11 14 14 12 14 14 12 9 8 5 10 13 10 10 12 17 22 44 31 35 38 39 37 44
22 25 27 29 31 29 27 27 25 6 18 8 1 2 4 4 9 14 14 15 14 13 12 14 10 7 2 2 4 5 6 10 15 15 5 5 14 27 42 30 31 38 40 40 41
25 24 25 29 30 29 31 28 22 2 14 4 5 4 5 5 12 17 13 10 13 14 8 2 2 2 1 3 7 11 8 14 18 10 11 19 24 29 35 25 31 36 39 40 41
25 25 25 29 31 25 32 26 24 3 21 7 13 9 12 12 20 16 9 7 7 3 1 1 1 10 13 17 16 12 14 17 22 25 17 20 20 31 28 23 19 30 33 36 39
25 26 28 29 27 28 25 18 18 12 12 6 10 17 15 14 9 13 6 3 2 5 3 3 9 17 8 9 14 14 18 22 24 15 9 22 26 32 25 19 13 13 16 21 24
24 26 29 30 22 34 21 20 23 10 6 10 9 10 9 7 7 9 2 3 5 4 6 8 10 7 12 12 14 17 15 19 20 23 10 14 14 17 4 5 13 18 20 22 23
26 27 29 31 19 36 12 21 20 9 4 4 3 3 4 6 5 9 8 4 2 5 3 7 5 7 11 10 12 14 7 15 16 11 11 6 12 12 3 3 11 15 22 27 28
27 28 29 30 31 29 16 21 13 4 5 2 3 4 4 4 11 1 6 4 6 8 6 10 7 7 7 10 3 11 13 13 17 16 13 4 6 5 6 5 15 16 22 27 29
27 28 29 31 36 23 17 19 7 5 6 4 2 2 3 3 3 7 5 5 3 2 3 17 6 4 6 6 3 10 6 14 3 1 3 7 6 16 2 7 12 13 22 27 31
29 30 27 34 29 17 9 10 4 3 3 4 4 1 0 4 4 2 3 4 2 5 4 4 4 4 4 6 6 7 6 4 5 4 5 7 12 11 1 5 9 15 22 27 29
29 31 34 33 21 7 3 4 3 4 7 3 2 2 4 1 4 3 4 5 0 5 3 1 9 3 3 6 6 3 6 3 6 3 17 10 6 4 5 3 16 19 25 28 29
34 34 35 18 11 7 2 1 6 6 2 3 4 2 4 4 3 3 3 4 4 8 7 2 7 4 11 7 8 5 2 4 5 1 3 3 6 6 11 16 18 17 24 26 29
39 31 18 8 7 8 3 8 6 5 1 2 4 5 6 3 2 1 2 4 4 9 2 4 7 5 2 4 3 5 2 4 1 5 6 5 5 4 13 15 16 15 16 26 29
29 15 8 7 9 4 4 8 5 12 7 6 7 8 9 4 5 4 6 3 5 2 4 4 3 7 4 2 6 4 4 5 3 2 3 5 5 5 7 10 13 14 22 26 28
17 5 12 16 3 4 2 6 4 6 10 8 5 10 6 6 6 6 8 7 7 6 4 5 4 5 11 9 5 5 5 2 2 6 4 4 8 4 5 6 10 13 22 26 27
16 16 11 11 4 4 6 8 6 13 6 4 5 8 6 6 6 9 7 6 15 7 4 4 3 4 11 5 4 2 4 5 7 3 8 4 6 3 3 8 12 13 22 25 26
10 4 4 13 12 5 12 18 10 5 7 8 5 13 15 7 8 7 11 5 10 13 22 9 7 8 9 10 2 11 16 15 8 4 3 7 10 12 12 10 12 17 21 23 25
5 5 4 6 9 10 11 16 20 23 10 6 20 12 14 13 17 10 12 8 11 20 8 3 10 4 8 10 5 17 20 21 11 12 7 5 5 14 6 6 9 15 19 21 26
7 7 7 19 21 12 16 21 24 15 20 19 8 22 19 15 13 19 14 18 13 2 6 5 4 3 4 7 1 6 11 11 12 11 11 8 11 3 3 6 10 15 17 18 23
16 21 20 14 10 12 14 18 25 24 13 22 21 17 19 21 21 22 23 26 22 8 9 5 4 2 5 3 6 7 6 4 2 3 4 3 5 2 3 3 4 12 17 18 21
Wind_Direction
355 355 357 356 353 353 349 345 341 339 335 332 329 331 334 339 353 235 30 15 328 323 333 330 332 344 342 219 201 202 244 250 252 242 262 320 352 311 305 293 298 292 284 296 303
350 350 353 354 351 349 347 342 338 335 331 327 328 328 335 330 325 184 347 358 308 327 330 338 343 357 154 198 202 182 222 247 228 351 311 305 301 309 310 302 288 298 291 289 293
359 351 351 352 350 347 343 339 336 332 330 327 321 320 328 329 316 214 21 355 327 334 334 342 355 27 118 160 218 274 245 359 283 299 301 300 301 301 285 277 288 295 297 298 296
358 349 348 350 349 346 344 340 338 334 329 326 324 320 328 322 307 174 313 327 334 336 350 10 357 61 60 236 214 279 254 266 286 284 286 285 297 286 284 280 287 282 284 288 284
355 349 348 349 348 345 344 344 339 333 330 324 333 321 328 299 250 253 321 327 330 330 342 353 13 20 344 304 330 262 275 294 287 292 284 283 272 276 284 285 287 282 279 278 280
353 351 346 347 346 345 347 344 336 330 330 332 309 315 326 264 177 297 325 333 327 326 325 332 334 299 270 239 200 245 260 258 272 277 279 270 277 281 281 287 275 273 270 276 279
346 348 348 348 347 346 346 344 334 331 318 328 307 274 287 229 237 307 315 323 316 313 314 313 302 257 249 281 256 263 279 275 270 269 261 267 257 251 259 273 276 277 273 274 272
343 346 347 347 347 346 345 345 332 332 335 331 329 254 261 189 279 309 311 310 299 296 301 304 291 271 241 260 297 272 242 266 256 231 239 178 264 269 270 274 279 277 277 270 268
346 345 349 347 344 343 345 347 337 327 342 334 320 259 257 255 297 320 321 312 311 313 305 299 276 250 188 210 312 219 257 227 281 285 230 180 287 274 278 281 279 274 273 272 268
350 344 344 343 345 342 345 351 348 186 352 297 272 284 234 284 315 329 323 293 311 308 333 134 238 268 254 135 235 256 259 274 276 269 321 279 276 273 275 275 270 274 273 271 268
352 348 343 343 346 347 347 2 15 330 333 282 273 270 289 301 302 329 299 300 303 309 239 328 254 239 236 216 237 264 269 267 281 285 293 286 283 282 291 295 277 273 270 271 269
349 351 347 345 349 351 348 23 6 319 310 313 256 263 281 294 289 319 275 280 219 246 149 342 232 252 249 239 248 259 268 283 287 285 309 295 285 284 294 280 313 336 349 339 319
348 347 347 344 352 349 352 359 349 334 278 288 252 272 283 273 280 309 278 228 220 249 205 201 248 312 276 275 282 271 277 282 276 301 278 281 283 300 311 59 1 1 343 333 327
348 350 346 343 351 345 342 340 340 323 48 253 253 269 237 278 279 300 270 231 242 248 260 241 278 262 287 268 275 281 243 275 287 313 296 53 289 310 283 326 353 344 339 332 327
344 346 343 341 336 339 329 335 337 330 351 181 221 234 255 223 308 306 191 203 217 236 94 254 274 286 276 259 243 248 304 281 270 267 294 299 227 274 24 336 344 328 323 324 324
338 339 337 335 332 332 325 326 324 33 259 308 229 218 340 217 242 293 276 252 274 300 261 256 283 223 230 284 261 308 321 294 352 157 237 248 202 299 313 325 315 317 321 321 323
334 332 329 329 324 317 322 326 7 146 346 271 273 196 243 264 293 56 328 309 186 2 319 307 240 260 202 355 346 40 27 325 346 355 237 300 300 264 13 335 326 319 323 328 327
332 330 323 321 319 281 323 38 150 241 232 23 323 290 247 243 245 308 301 295 124 98 302 228 316 219 162 162 223 234 157 187 291 281 295 288 244 262 181 12 343 334 331 331 331
325 323 319 317 302 229 159 53 224 222 309 309 315 328 296 246 247 342 207 241 241 183 180 147 267 250 286 289 137 272 228 222 278 75 359 267 291 123 344 348 343 339 338 335 333
330 329 315 300 262 203 116 249 233 223 20 102 185 180 265 272 280 187 260 212 254 201 177 268 304 250 305 8 294 183 293 318 318 312 300 279 283 260 334 328 334 333 337 336 337
337 322 300 290 239 189 227 232 272 265 238 194 228 268 240 240 211 223 242 267 211 211 147 152 161 278 28 218 203 341 297 227 258 208 269 307 269 215 280 323 325 335 341 338 340
328 300 301 283 225 221 217 212 255 266 264 260 263 260 241 193 224 236 234 221 174 143 224 208 187 273 243 270 202 197 234 253 256 289 236 271 279 227 271 314 338 340 341 343 346
311 284 273 231 252 253 258 268 255 279 251 255 248 219 209 237 244 202 252 253 226 187 233 187 234 320 322 350 10 127 253 246 275 297 256 264 265 216 339 355 350 344 345 346 352
306 308 250 210 253 287 298 293 275 223 272 269 251 256 269 232 231 262 250 245 211 232 235 191 198 192 244 245 168 297 287 279 274 247 255 236 292 309 340 345 346 344 348 351 358
280 260 264 285 279 255 263 283 292 303 265 227 290 256 277 286 273 244 261 263 246 239 224 235 261 198 251 270 260 275 276 282 267 240 235 268 264 309 311 326 330 336 351 0 1
279 314 304 279 282 297 299 290 289 300 301 288 280 296 292 289 299 287 282 285 279 174 200 190 246 151 271 272 25 260 253 252 253 252 245 272 288 208 263 349 354 348 357 3 4
309 295 283 282 295 290 288 295 298 295 277 289 296 302 302 295 298 297 290 282 267 223 204 195 196 159 258 244 324 323 236 199 247 236 178 230 233 183 292 352 350 353 3 5 14